Time,TemperatureF,DewpointF,PressureIn,WindDirection,WindDirectionDegrees,WindSpeedMPH,WindSpeedGustMPH,Humidity,HourlyPrecipIn,Conditions,Clouds,dailyrainin,SoftwareType,DateUTC
2013-03-26 00:01:00,62.0,38.0,29.77,North,-999,0.0,0.0,41,0.00,,,-99.99,,2013-03-26 07:01:00,
2013-03-26 00:02:00,61.0,36.0,29.77,North,-999,0.0,0.0,40,0.00,,,-99.99,,2013-03-26 07:02:00,
2013-03-26 00:32:00,62.0,38.0,29.77,North,-999,0.0,0.0,41,0.00,,,-99.99,,2013-03-26 07:32:00,
2013-03-26 04:33:00,56.0,33.0,29.75,North,-999,0.0,0.0,42,0.00,,,-99.99,,2013-03-26 11:33:00,
2013-03-26 05:02:00,56.0,29.0,29.75,North,-999,0.0,0.0,36,0.00,,,-99.99,,2013-03-26 12:02:00,
2013-03-26 05:32:00,56.0,35.0,29.74,North,-999,0.0,0.0,45,0.00,,,-99.99,,2013-03-26 12:32:00,
2013-03-26 06:02:00,54.0,35.0,29.75,North,-999,0.0,0.0,48,0.00,,,-99.99,,2013-03-26 13:02:00,
2013-03-26 06:32:00,54.0,35.0,29.75,North,-999,0.0,0.0,48,0.00,,,-99.99,,2013-03-26 13:32:00,
2013-03-26 07:33:00,54.0,36.0,29.75,North,-999,0.0,0.0,51,0.00,,,-99.99,,2013-03-26 14:33:00,
2013-03-26 08:02:00,55.0,38.0,29.76,North,-999,0.0,0.0,52,0.00,,,-99.99,,2013-03-26 15:02:00,
2013-03-26 08:33:00,55.0,38.0,29.77,North,-999,0.0,0.0,52,0.00,,,-99.99,,2013-03-26 15:33:00,
2013-03-26 09:33:00,57.0,39.0,29.79,North,-999,0.0,0.0,51,0.00,,,-99.99,,2013-03-26 16:33:00,
2013-03-26 09:42:00,57.0,39.0,29.79,North,-999,0.0,0.0,51,0.00,,,-99.99,,2013-03-26 16:42:00,
2013-03-26 09:53:00,57.0,39.0,29.79,North,-999,0.0,0.0,51,0.00,,,-99.99,,2013-03-26 16:53:00,
2013-03-26 10:02:00,58.0,42.0,29.80,North,0,0.0,1.0,56,0.00,,,-99.99,,2013-03-26 17:02:00,
2013-03-26 10:12:00,58.0,42.0,29.80,North,0,0.0,1.0,56,0.00,,,-99.99,,2013-03-26 17:12:00,
2013-03-26 10:22:00,58.0,42.0,29.80,North,0,0.0,1.0,56,0.00,,,-99.99,,2013-03-26 17:22:00,
2013-03-26 10:32:00,58.0,42.0,29.80,North,-999,0.0,0.0,55,0.00,,,-99.99,,2013-03-26 17:32:00,
2013-03-26 10:40:00,60.0,42.0,29.81,North,0,0.0,3.0,52,0.00,,,-99.99,,2013-03-26 17:40:00,
2013-03-26 10:42:00,58.0,42.0,29.80,North,-999,0.0,0.0,55,0.00,,,-99.99,,2013-03-26 17:42:00,
2013-03-26 10:53:00,58.0,42.0,29.80,North,-999,0.0,0.0,55,0.00,,,-99.99,,2013-03-26 17:53:00,
2013-03-26 11:12:00,60.0,42.0,29.81,North,0,0.0,3.0,52,0.00,,,-99.99,,2013-03-26 18:12:00,
2013-03-26 11:23:00,60.0,42.0,29.81,North,0,0.0,3.0,52,0.00,,,-99.99,,2013-03-26 18:23:00,
2013-03-26 11:33:00,60.0,42.0,29.81,North,0,0.0,3.0,52,0.00,,,-99.99,,2013-03-26 18:33:00,
2013-03-26 12:02:00,61.0,47.0,29.80,North,0,0.0,1.0,60,0.00,,,-99.99,,2013-03-26 19:02:00,
2013-03-26 12:33:00,61.0,47.0,29.80,North,0,0.0,1.0,60,0.00,,,-99.99,,2013-03-26 19:33:00,
2013-03-26 12:42:00,61.0,47.0,29.80,North,0,0.0,1.0,60,0.00,,,-99.99,,2013-03-26 19:42:00,
2013-03-26 12:53:00,61.0,47.0,29.80,North,0,0.0,1.0,60,0.00,,,-99.99,,2013-03-26 19:53:00,
2013-03-26 15:42:00,65.0,50.0,29.76,SSW,210,1.0,3.0,58,0.00,,,-99.99,,2013-03-26 22:42:00,
2013-03-26 15:52:00,65.0,50.0,29.76,SSW,210,1.0,3.0,58,0.00,,,-99.99,,2013-03-26 22:52:00,
2013-03-26 16:01:00,64.0,48.0,29.75,North,0,0.0,3.0,56,0.00,,,-99.99,,2013-03-26 23:01:00,
2013-03-26 16:10:00,64.0,48.0,29.75,North,0,0.0,3.0,56,0.00,,,-99.99,,2013-03-26 23:10:00,
2013-03-26 16:22:00,64.0,48.0,29.75,North,0,0.0,3.0,56,0.00,,,-99.99,,2013-03-26 23:22:00,
2013-03-26 16:31:00,64.0,48.0,29.75,North,0,0.0,1.0,57,0.00,,,-99.99,,2013-03-26 23:31:00,
2013-03-26 16:43:00,64.0,48.0,29.75,North,0,0.0,1.0,57,0.00,,,-99.99,,2013-03-26 23:43:00,
2013-03-26 16:52:00,64.0,48.0,29.75,North,0,0.0,1.0,57,0.00,,,-99.99,,2013-03-26 23:52:00,
2013-03-26 17:02:00,64.0,47.0,29.74,North,-999,0.0,0.0,54,0.00,,,-99.99,,2013-03-27 00:02:00,
2013-03-26 17:12:00,64.0,47.0,29.74,North,-999,0.0,0.0,54,0.00,,,-99.99,,2013-03-27 00:12:00,
2013-03-26 17:22:00,64.0,47.0,29.74,North,-999,0.0,0.0,54,0.00,,,-99.99,,2013-03-27 00:22:00,
2013-03-26 18:01:00,60.0,46.0,29.74,North,0,0.0,1.0,59,0.00,,,-99.99,,2013-03-27 01:01:00,
2013-03-26 18:02:00,61.0,47.0,29.74,North,-999,0.0,0.0,59,0.00,,,-99.99,,2013-03-27 01:02:00,
2013-03-26 18:12:00,61.0,47.0,29.74,North,-999,0.0,0.0,59,0.00,,,-99.99,,2013-03-27 01:12:00,
2013-03-26 18:22:00,61.0,47.0,29.74,North,-999,0.0,0.0,59,0.00,,,-99.99,,2013-03-27 01:22:00,
2013-03-26 18:32:00,60.0,46.0,29.74,North,0,0.0,1.0,59,0.00,,,-99.99,,2013-03-27 01:32:00,
2013-03-26 18:42:00,60.0,46.0,29.74,North,0,0.0,1.0,59,0.00,,,-99.99,,2013-03-27 01:42:00,
2013-03-26 18:53:00,60.0,46.0,29.74,North,0,0.0,1.0,59,0.00,,,-99.99,,2013-03-27 01:53:00,
2013-03-26 20:32:00,56.0,44.0,29.77,North,-999,0.0,0.0,65,0.00,,,-99.99,,2013-03-27 03:32:00,
2013-03-26 20:33:00,55.0,43.0,29.77,North,-999,0.0,0.0,64,0.00,,,-99.99,,2013-03-27 03:33:00,
2013-03-26 20:42:00,55.0,43.0,29.77,North,-999,0.0,0.0,64,0.00,,,-99.99,,2013-03-27 03:42:00,
2013-03-26 20:53:00,55.0,43.0,29.77,North,-999,0.0,0.0,64,0.00,,,-99.99,,2013-03-27 03:53:00,
2013-03-26 21:02:00,56.0,44.0,29.77,North,-999,0.0,0.0,65,0.00,,,-99.99,,2013-03-27 04:02:00,
2013-03-26 21:12:00,56.0,44.0,29.77,North,-999,0.0,0.0,65,0.00,,,-99.99,,2013-03-27 04:12:00,
2013-03-26 21:23:00,56.0,44.0,29.77,North,-999,0.0,0.0,65,0.00,,,-99.99,,2013-03-27 04:23:00,